Location: Northcutt
(34.7304°N, 84.4305°W)
Time: 18:42:02
(UTC+00:00)

SR - Pass Details

Date: 06 October 2022
Orbit: 577 x 874 km, 66.7° (Epoch: 05 December)

Event Time Altitude Azimuth Distance (km) Brightness Sun altitude
Rises 11:07:50 0° 330° (NNW) 3,259 ? -6.7°
Reaches altitude 10° 11:10:21 10° 328° (NNW) 2,280 ? -6.1°
Maximum altitude 11:15:29 66° 247° (WSW) 769 ? -5.1°
Drops below altitude 10° 11:20:09 10° 165° (SSE) 2,073 ? -4.1°
Sets 11:22:21 0° 162° (SSE) 2,938 ? -3.7°
